Location: Unspecified
(33.2541°N, 0.0000°E)
Time: 19:51:52
(UTC+00:00)

Vanguard 3 - Visible Passes

Search period start: 04 April 2026 00:00
Search period end: 14 April 2026 00:00
Orbit: 508 x 3205 km, 33.3° (Epoch: 28 March)

Date Brightness Start Highest point End Pass type
(mag) Time Alt. Az. Time Alt. Az. Time Alt. Az.
4 Apr 9.1 02:23:13 26° E 02:23:13 26° E 02:26:47 10° E visible
4 Apr 8.0 04:27:07 23° W 04:31:18 89° N 04:42:12 10° E visible
5 Apr 7.5 03:09:57 71° ESE 03:09:57 71° ESE 03:17:27 10° E visible
5 Apr 8.4 05:14:31 10° W 05:21:11 87° S 05:33:31 10° E visible
6 Apr 9.8 01:52:47 13° E 01:52:47 13° E 01:53:39 10° E visible
6 Apr 7.6 03:56:41 41° W 03:58:56 89° N 04:08:21 10° E visible
7 Apr 8.4 02:39:32 38° E 02:39:32 38° E 02:44:05 10° E visible
7 Apr 8.0 04:43:26 14° W 04:48:42 86° S 04:59:25 10° ESE visible
8 Apr 7.1 03:26:17 77° W 03:26:43 88° N 03:34:45 10° E visible
9 Apr 9.4 02:09:10 19° E 02:09:10 19° E 02:11:00 10° E visible
9 Apr 7.5 04:13:04 26° W 04:16:21 84° S 04:25:34 10° ESE visible
10 Apr 7.7 02:55:58 52° E 02:55:58 52° E 03:01:24 10° E visible
10 Apr 8.0 05:00:17 10° W 05:06:02 65° SSW 05:16:17 10° ESE visible
11 Apr 7.1 03:42:49 53° W 03:44:08 82° S 03:51:59 10° ESE visible
12 Apr 8.9 02:25:47 24° E 02:25:47 24° E 02:28:19 10° E visible
12 Apr 7.7 04:29:41 18° W 04:33:42 60° SSW 04:42:27 10° ESE visible
13 Apr 7.1 03:12:41 66° SE 03:12:41 66° SE 03:18:39 10° ESE visible
